GFSFLT2_850_dewp_000.txt.gz
Dewpoint
8 7 7 8 9 9 9 8 7 7 6 6 7 7 7 6 6 6 6 7 6 5 4 4 -2 -16 -2
7 7 7 7 8 8 7 8 8 8 7 7 7 7 7 7 7 7 7 7 6 5 4 0 -8 -5 -1
7 7 7 7 7 7 8 8 8 7 5 7 7 7 8 6 7 7 7 7 5 4 2 -3 -17 -2 -2
6 6 6 7 7 7 8 7 7 8 8 8 6 7 8 7 7 7 7 5 4 4 0 -5 -20 -7 -4
4 5 7 6 6 6 7 6 6 5 6 6 7 7 6 6 6 5 5 4 3 2 -3 -12 -16 -10 -5
3 4 4 5 5 6 6 6 5 5 4 5 5 5 5 4 5 4 4 2 2 -3 -3 -8 -4 -4 -4
1 2 3 4 5 5 5 5 6 6 6 5 5 3 4 3 3 2 2 1 -0 -6 -7 -4 -4 -5 -5
0 1 1 2 3 3 4 5 5 6 5 4 4 3 3 3 1 0 0 -0 -1 -5 -4 -4 -5 -5 -5
0 1 1 2 2 2 3 3 4 4 4 4 3 1 0 -0 -0 -0 -0 -1 -4 -5 -4 -5 -5 -5 -5
-1 -1 1 2 2 3 3 3 3 3 4 2 0 -1 -2 -2 -1 -1 -3 -5 -5 -5 -5 -5 -5 -6 -7
-1 -0 0 1 2 2 2 2 3 3 4 2 -1 -1 -0 -2 -3 -3 -9 -7 -5 -5 -5 -5 -6 -6 -6
-3 -2 -1 -0 0 0 1 1 1 1 1 -0 -1 -1 -1 -6 -6 -9 -14 -15 -14 -12 -12 -13 -13 -8 -7
-4 -4 -3 -2 -2 -2 -2 -2 -2 -1 -1 -2 -1 -1 -1 -4 -24 -22 -19 -18 -19 -21 -22 -21 -21 -21 -20
-5 -4 -4 -3 -4 -4 -4 -3 -3 -4 -4 -3 -3 -4 -18 -25 -26 -24 -22 -23 -23 -22 -22 -20 -17 -14 -13
-5 -5 -5 -5 -4 -5 -5 -4 -3 -4 -5 -4 -10 -21 -21 -22 -24 -24 -24 -23 -17 -16 -15 -15 -15 -13 -12
-6 -6 -6 -6 -5 -6 -6 -5 -5 -5 -5 -14 -19 -19 -22 -24 -24 -22 -18 -15 -15 -14 -13 -12 -11 -10 -10
-6 -6 -7 -7 -7 -6 -6 -6 -6 -6 -16 -16 -19 -24 -25 -24 -22 -18 -15 -14 -13 -13 -11 -10 -9 -8 -8

GFSFLT2_850_dewp_003.txt.gz
Dewpoint
4 4 5 6 6 6 6 5 5 5 7 7 7 8 7 6 7 7 6 6 6 6 8 8 7 6 5
2 4 5 5 5 5 6 7 7 6 5 6 7 8 8 8 8 7 7 7 6 6 7 8 6 6 5
1 3 3 4 4 5 6 6 5 7 6 6 6 7 6 8 6 8 8 7 7 7 8 6 4 4 3
-2 1 2 2 3 4 5 6 5 4 5 4 5 6 7 5 5 7 8 8 8 8 8 7 5 4 2
-2 -0 0 0 2 2 3 4 5 5 4 3 3 6 6 5 5 6 7 7 7 7 7 5 3 4 1
-3 -2 -1 -0 0 1 1 2 3 5 5 5 4 4 4 4 5 5 6 6 6 6 5 3 3 2 1
-2 -2 -1 -0 -0 0 1 1 2 3 3 4 4 3 4 5 5 5 5 5 5 2 2 2 1 0 -1
-2 -1 -2 -2 -0 0 0 1 1 2 2 2 4 4 4 5 3 4 3 2 1 1 1 0 -0 -2 -5
-3 -3 -3 -2 -1 0 1 1 1 1 1 2 3 3 2 3 1 1 0 -0 0 -0 -0 -1 -3 -4 -4
-4 -4 -4 -3 -2 -1 -1 -1 -0 -0 1 1 2 1 -1 -1 -1 -2 -1 -1 -1 -1 -3 -4 -4 -4 -5
-5 -6 -5 -4 -3 -3 -2 -2 -2 -2 -1 0 1 -1 -1 -3 -3 -3 -2 -2 -3 -4 -4 -4 -4 -4 -5
-6 -6 -5 -4 -5 -4 -4 -3 -3 -3 -2 -1 -1 -1 -2 -4 -5 -5 -4 -4 -4 -5 -5 -4 -4 -4 -4
-6 -6 -6 -6 -5 -5 -5 -5 -5 -4 -3 -3 -3 -2 -2 -2 -5 -5 -5 -5 -6 -6 -6 -7 -5 -5 -5
-7 -7 -7 -6 -6 -6 -6 -6 -6 -6 -5 -5 -4 -4 -3 -3 -3 -4 -5 -18 -16 -14 -11 -9 -9 -12 -14
-8 -7 -7 -7 -7 -7 -7 -6 -6 -6 -6 -6 -5 -8 -17 -19 -28 -23 -21 -25 -19 -19 -20 -21 -22 -21 -19
-8 -7 -8 -7 -7 -7 -7 -7 -6 -7 -6 -7 -16 -22 -22 -22 -22 -22 -23 -23 -20 -21 -20 -17 -15 -14 -13
-8 -8 -8 -8 -8 -8 -8 -7 -7 -7 -9 -18 -18 -21 -24 -22 -21 -20 -18 -15 -14 -14 -14 -13 -12 -11 -10

GFSFLT2_850_dewp_006.txt.gz
Dewpoint
-5 -12 -15 -12 -2 -0 1 2 3 3 4 5 5 6 6 6 7 8 6 7 7 7 7 7 5 7 8
-10 -11 -11 -15 -14 -7 -0 1 1 4 4 4 6 6 6 6 6 6 6 8 8 8 8 8 6 6 8
-6 -8 -11 -14 -7 -4 -5 -4 -0 3 3 5 5 3 4 4 5 5 6 7 6 5 7 8 8 6 8
-3 -3 -4 -7 -3 -3 -3 -3 -2 -0 2 3 3 4 3 2 4 4 6 7 6 6 6 7 8 7 8
-4 -4 -4 -3 -3 -3 -2 -2 -1 -0 0 1 1 2 5 4 3 3 3 5 5 5 5 6 7 8 7
-5 -5 -5 -5 -3 -2 -1 -2 -1 -0 0 1 1 3 0 -0 1 2 2 2 4 5 4 7 8 8 6
-6 -6 -5 -4 -2 -3 -2 -2 -2 -2 -1 -0 0 1 2 2 2 3 3 3 4 4 6 6 7 6 4
-5 -4 -4 -3 -4 -4 -3 -3 -3 -1 0 1 1 1 2 2 2 2 2 4 4 5 5 5 5 4 2
-6 -5 -5 -6 -5 -4 -5 -4 -4 -4 -3 -1 -0 0 1 1 2 2 3 3 4 4 3 2 2 1 0
-8 -9 -8 -6 -6 -6 -6 -5 -5 -5 -3 -2 -1 -0 -0 0 1 1 2 2 2 1 0 0 -0 -1 -2
-9 -8 -7 -6 -7 -7 -6 -6 -6 -6 -5 -5 -3 -3 -2 -1 -1 -0 -0 -1 -1 -1 -1 -1 -2 -2 -3
-8 -8 -7 -7 -7 -7 -7 -6 -6 -6 -6 -5 -5 -4 -3 -3 -2 -2 -2 -2 -2 -2 -3 -3 -3 -4 -4
-9 -8 -8 -8 -7 -8 -8 -7 -7 -7 -7 -6 -5 -5 -4 -3 -3 -4 -4 -4 -3 -3 -3 -4 -3 -4 -4
-10 -9 -9 -8 -7 -8 -8 -7 -8 -7 -7 -7 -6 -5 -4 -5 -4 -5 -5 -4 -4 -4 -4 -4 -3 -3 -4
-10 -10 -9 -8 -8 -8 -8 -8 -8 -7 -8 -7 -7 -6 -7 -7 -7 -6 -5 -4 -5 -5 -4 -5 -5 -4 -4
-10 -10 -9 -8 -8 -8 -8 -8 -8 -8 -8 -8 -9 -9 -9 -7 -6 -5 -6 -16 -6 -6 -8 -7 -7 -7 -10
-11 -10 -9 -9 -9 -8 -8 -8 -8 -8 -8 -8 -11 -13 -21 -17 -12 -18 -21 -19 -13 -12 -16 -21 -22 -19 -17

GFSFLT2_850_dewp_009.txt.gz
Dewpoint
-4 -3 -4 -7 -5 -5 -7 -15 -11 -11 -9 -8 -2 1 4 4 6 6 7 7 7 7 8 8 8 9 8
-4 -5 -6 -5 -4 -5 -6 -4 -6 -13 -8 -3 -1 2 2 4 5 4 6 6 6 7 8 5 6 8 8
-6 -6 -6 -5 -6 -5 -5 -7 -5 -4 -1 -2 1 -0 1 2 4 4 3 3 5 6 6 7 6 6 6
-6 -7 -7 -7 -6 -7 -6 -6 -5 -3 -2 -1 -6 -3 0 0 1 3 3 3 4 6 6 7 7 6 4
-6 -6 -7 -7 -6 -6 -5 -4 -3 -3 -3 -2 -2 -1 -1 0 2 4 4 4 2 2 4 6 6 6 5
-7 -7 -7 -7 -5 -5 -5 -4 -3 -5 -3 -3 -3 -2 -2 -3 -2 1 1 -0 0 1 3 2 5 4 4
-7 -7 -8 -9 -6 -5 -5 -5 -4 -4 -4 -4 -2 -2 -1 -1 -0 1 2 2 1 2 2 2 4 5 4
-8 -8 -8 -8 -7 -6 -6 -6 -6 -5 -5 -4 -4 -5 -3 0 1 -0 0 1 2 1 2 4 4 3 3
-9 -8 -8 -7 -6 -6 -6 -6 -6 -5 -5 -5 -4 -2 -2 -1 -1 -0 0 0 1 2 2 3 5 5 5
-10 -12 -10 -10 -7 -7 -7 -7 -6 -6 -6 -6 -6 -6 -4 -2 -1 -1 1 1 2 3 4 4 4 4 3
-12 -10 -9 -9 -8 -8 -8 -7 -7 -7 -7 -7 -7 -7 -6 -5 -4 -1 1 2 2 2 1 2 3 3 1
-10 -10 -9 -10 -9 -9 -8 -8 -8 -8 -7 -7 -8 -7 -7 -6 -5 -2 -0 0 0 -0 -1 -0 -0 -0 0
-10 -10 -10 -10 -10 -9 -9 -8 -8 -8 -8 -8 -8 -7 -7 -6 -5 -3 -2 -1 -1 -1 -2 -2 -2 -2 -2
-11 -11 -11 -10 -10 -9 -8 -9 -8 -8 -8 -8 -8 -8 -7 -7 -6 -4 -4 -3 -3 -3 -3 -3 -3 -3 -3
-11 -11 -11 -10 -10 -9 -9 -8 -8 -8 -9 -9 -9 -9 -8 -7 -7 -6 -5 -4 -3 -3 -3 -3 -4 -4 -5
-12 -11 -11 -10 -10 -9 -9 -8 -9 -9 -9 -9 -8 -8 -9 -9 -7 -6 -5 -4 -4 -4 -4 -4 -4 -4 -4
-12 -11 -10 -10 -9 -9 -8 -8 -9 -9 -9 -9 -10 -18 -8 -9 -8 -6 -6 -5 -5 -5 -4 -4 -5 -5 -5

GFSFLT2_850_dewp_012.txt.gz
Dewpoint
-7 -8 -8 -9 -8 -8 -7 -6 -6 -6 -5 -2 -3 -6 -11 -4 -2 -0 2 3 5 6 6 6 7 7 8
-8 -8 -8 -7 -7 -8 -8 -8 -7 -7 -6 -5 -4 -4 -4 -4 -1 -1 -1 2 4 5 6 6 7 7 9
-7 -7 -7 -7 -7 -7 -7 -8 -8 -6 -6 -5 -3 -2 -2 -1 -4 -6 -2 -1 2 5 4 4 5 6 7
-7 -7 -7 -9 -8 -8 -8 -7 -6 -6 -5 -3 -3 -2 -2 -2 -2 -2 1 2 3 3 4 4 4 4 6
-6 -7 -9 -10 -8 -8 -8 -9 -8 -8 -5 -5 -4 -4 -4 -4 -7 -7 -3 -1 2 4 4 3 3 4 6
-6 -7 -9 -9 -8 -9 -7 -7 -6 -10 -5 -5 -7 -5 -5 -5 -4 -2 -1 -0 0 1 3 3 1 2 4
-8 -9 -10 -9 -8 -7 -7 -7 -7 -8 -6 -6 -6 -6 -5 -5 -3 -4 -1 0 1 1 2 0 1 0 2
-10 -9 -8 -8 -8 -8 -8 -8 -7 -7 -5 -5 -6 -7 -7 -4 -3 -2 -1 -0 0 -0 -0 1 1 1 2
-9 -9 -10 -9 -8 -8 -8 -7 -7 -6 -7 -6 -7 -6 -5 -8 -5 -3 -2 -2 -1 -0 0 1 2 1 1
-10 -11 -10 -9 -9 -9 -9 -8 -8 -7 -8 -6 -8 -7 -6 -6 -4 -3 -3 -1 2 2 1 0 1 3 4
-11 -11 -10 -10 -10 -9 -9 -9 -9 -9 -9 -7 -7 -7 -7 -7 -7 -6 -5 -0 1 3 3 3 4 4 4
-11 -11 -10 -11 -10 -10 -10 -10 -9 -8 -8 -8 -8 -8 -8 -8 -7 -7 -4 -1 0 2 2 2 2 3 3
-11 -11 -11 -11 -11 -11 -10 -10 -9 -8 -8 -8 -8 -8 -8 -8 -8 -6 -5 -3 -1 -0 -0 -0 -0 0 0
-11 -12 -11 -11 -11 -10 -10 -9 -8 -8 -8 -8 -9 -9 -9 -8 -7 -6 -5 -4 -3 -1 -1 -1 -1 -0 -0
-12 -12 -12 -11 -11 -10 -9 -9 -8 -8 -9 -9 -9 -9 -9 -8 -7 -6 -6 -4 -3 -2 -2 -3 -3 -2 -2
-12 -12 -11 -11 -10 -9 -8 -8 -9 -9 -10 -9 -9 -9 -9 -9 -8 -7 -6 -5 -3 -3 -3 -3 -3 -3 -3
-12 -12 -11 -10 -10 -9 -9 -9 -9 -9 -10 -10 -16 -9 -8 -9 -8 -7 -6 -5 -4 -4 -5 -5 -5 -5 -5

GFSFLT2_850_dewp_015.txt.gz
Dewpoint
-9 -8 -7 -8 -8 -7 -7 -7 -7 -8 -8 -7 -7 -6 -6 -5 -4 -3 -2 -1 0 2 2 3 5 4 4
-8 -7 -8 -8 -7 -7 -8 -10 -9 -9 -9 -9 -6 -4 -5 -5 -4 -1 -1 -1 1 0 0 -2 2 4 6
-7 -8 -7 -6 -7 -7 -9 -10 -10 -9 -7 -8 -8 -6 -4 -4 -3 -3 -2 -2 -1 -2 -1 -0 -1 4 5
-7 -7 -6 -7 -7 -8 -9 -10 -10 -9 -9 -8 -7 -7 -5 -4 -3 -5 -3 -2 -9 -8 -2 1 2 3 4
-6 -6 -7 -8 -9 -9 -10 -9 -9 -8 -8 -8 -7 -7 -7 -6 -6 -5 -4 -3 -4 -2 0 0 2 4 4
-6 -7 -8 -9 -11 -9 -8 -8 -8 -9 -8 -8 -7 -6 -7 -6 -4 -3 -3 -3 -2 -2 -2 -2 0 2 4
-8 -8 -10 -10 -9 -8 -8 -9 -9 -9 -7 -7 -6 -6 -5 -6 -7 -5 -4 -4 -3 -2 -1 -2 -1 1 3
-9 -10 -10 -9 -8 -9 -9 -8 -8 -8 -8 -6 -8 -6 -8 -8 -9 -6 -5 -4 -3 -2 -1 1 1 1 2
-10 -10 -10 -10 -10 -9 -9 -9 -9 -8 -9 -8 -8 -7 -9 -8 -9 -7 -4 -3 -3 -2 -2 -1 -0 0 0
-11 -12 -11 -11 -9 -10 -9 -9 -9 -9 -10 -9 -9 -8 -7 -8 -6 -7 -7 -6 -4 -2 -0 -1 -1 -1 -0
-12 -12 -11 -10 -10 -10 -10 -10 -10 -9 -10 -9 -9 -8 -8 -7 -7 -8 -7 -6 -4 0 2 2 1 0 -0
-11 -10 -10 -10 -11 -11 -11 -11 -10 -9 -10 -9 -8 -8 -7 -8 -8 -8 -7 -5 -3 -0 2 2 3 3 3
-10 -11 -11 -11 -11 -11 -11 -10 -10 -10 -8 -8 -7 -7 -8 -9 -9 -8 -7 -5 -3 -1 0 1 1 2 3
-11 -12 -12 -11 -11 -10 -10 -9 -9 -9 -8 -8 -9 -9 -9 -9 -8 -8 -6 -5 -3 -2 -1 -1 -1 0 0
-12 -12 -12 -11 -11 -10 -9 -8 -8 -9 -9 -10 -9 -9 -9 -8 -7 -6 -6 -5 -4 -3 -1 -2 -1 -1 -1
-12 -12 -12 -11 -11 -10 -9 -8 -9 -9 -10 -10 -10 -9 -8 -8 -8 -7 -6 -5 -4 -3 -3 -2 -3 -2 -2
-12 -12 -11 -11 -10 -10 -9 -9 -9 -10 -12 -11 -9 -8 -8 -9 -8 -7 -6 -5 -4 -3 -3 -3 -3 -3 -3

GFSFLT2_850_dewp_018.txt.gz
Dewpoint
-10 -10 -8 -8 -11 -8 -7 -7 -7 -7 -8 -8 -9 -9 -8 -7 -6 -5 -4 -4 -4 -4 -2 -1 -0 2 3
-8 -7 -8 -9 -8 -8 -7 -7 -7 -9 -10 -9 -10 -9 -6 -7 -8 -8 -7 -5 -4 -2 -1 -1 -0 1 1
-7 -8 -7 -7 -8 -7 -7 -8 -9 -10 -12 -10 -9 -8 -8 -8 -7 -6 -6 -4 -3 -3 -2 -1 -1 -0 0
-7 -7 -7 -7 -7 -8 -9 -10 -11 -10 -10 -8 -8 -9 -8 -8 -7 -7 -5 -4 -5 -4 -4 -2 -2 -1 -1
-7 -7 -8 -8 -8 -9 -10 -11 -10 -9 -8 -10 -10 -9 -10 -8 -7 -6 -5 -5 -4 -4 -3 -2 -2 -2 -0
-8 -9 -10 -10 -8 -9 -9 -8 -8 -9 -10 -9 -8 -9 -8 -8 -6 -5 -4 -5 -5 -5 -3 -3 -3 -2 -3
-10 -10 -9 -9 -9 -8 -8 -8 -9 -9 -9 -9 -9 -8 -8 -11 -8 -7 -6 -6 -6 -5 -4 -3 -3 -2 -1
-11 -9 -9 -9 -9 -9 -9 -10 -10 -9 -9 -9 -9 -9 -10 -10 -8 -8 -7 -6 -5 -5 -4 -3 -2 -2 -1
-9 -9 -11 -11 -10 -10 -10 -10 -10 -10 -11 -10 -10 -10 -10 -10 -10 -8 -6 -6 -6 -6 -5 -4 -3 -3 -2
-11 -14 -14 -12 -10 -10 -10 -10 -10 -10 -11 -10 -10 -9 -9 -10 -8 -8 -8 -8 -7 -6 -5 -4 -4 -4 -3
-14 -12 -11 -11 -11 -11 -11 -11 -11 -11 -12 -10 -10 -9 -9 -9 -9 -8 -9 -8 -6 -5 -3 -1 -3 -3 -3
-11 -11 -11 -12 -12 -11 -11 -10 -9 -10 -9 -9 -9 -9 -9 -8 -8 -10 -8 -6 -5 -4 -2 2 1 -0 -2
-11 -12 -12 -12 -12 -11 -10 -9 -9 -8 -9 -9 -8 -8 -9 -9 -9 -9 -8 -6 -4 -3 -0 1 2 2 1
-12 -12 -12 -12 -11 -10 -10 -9 -9 -9 -10 -10 -10 -9 -10 -9 -8 -7 -7 -6 -4 -3 -2 -1 -0 1 2
-12 -12 -12 -11 -11 -10 -10 -10 -9 -9 -10 -10 -9 -9 -9 -9 -8 -7 -6 -5 -4 -3 -2 -2 -2 -2 -1
-12 -12 -11 -11 -11 -10 -10 -10 -10 -10 -10 -10 -9 -9 -8 -9 -8 -7 -5 -4 -3 -3 -2 -2 -2 -2 -2
-12 -11 -11 -11 -11 -10 -10 -10 -10 -10 -10 -10 -10 -9 -9 -9 -8 -7 -5 -4 -3 -3 -3 -3 -3 -3 -3

GFSFLT2_850_dewp_021.txt.gz
Dewpoint
-10 -10 -9 -10 -12 -10 -8 -8 -7 -7 -7 -6 -8 -9 -8 -9 -9 -8 -7 -6 -5 -5 -5 -3 -2 -1 -0
-9 -8 -9 -9 -10 -8 -7 -8 -9 -10 -8 -9 -9 -10 -10 -8 -8 -7 -6 -7 -7 -6 -5 -6 -5 -1 -1
-8 -9 -8 -8 -7 -7 -10 -10 -10 -10 -11 -11 -11 -10 -8 -7 -8 -9 -8 -7 -6 -6 -6 -4 -3 -2 -2
-7 -7 -7 -8 -10 -11 -12 -11 -9 -10 -10 -10 -9 -8 -10 -10 -9 -8 -7 -7 -7 -7 -6 -4 -3 -3 -3
-7 -7 -9 -10 -11 -11 -10 -9 -9 -9 -9 -9 -10 -10 -10 -10 -9 -8 -7 -7 -6 -5 -5 -5 -4 -3 -3
-8 -8 -10 -10 -10 -9 -9 -9 -10 -10 -10 -10 -9 -10 -10 -11 -9 -7 -7 -8 -7 -5 -5 -5 -5 -4 -4
-9 -9 -9 -10 -9 -9 -10 -10 -10 -10 -10 -10 -10 -10 -10 -11 -9 -8 -8 -7 -6 -6 -6 -5 -5 -5 -4
-10 -10 -9 -9 -10 -10 -10 -10 -10 -10 -11 -10 -10 -10 -12 -11 -10 -9 -8 -8 -8 -7 -6 -5 -5 -5 -4
-9 -10 -11 -11 -10 -10 -11 -10 -11 -11 -13 -11 -11 -11 -10 -11 -12 -10 -9 -7 -7 -6 -6 -6 -5 -5 -4
-12 -14 -14 -13 -11 -11 -11 -11 -11 -11 -13 -11 -11 -10 -10 -11 -10 -10 -10 -9 -8 -7 -7 -6 -6 -4 -4
-14 -13 -12 -12 -12 -12 -11 -11 -11 -11 -11 -10 -10 -10 -10 -10 -10 -10 -10 -9 -7 -6 -5 -5 -5 -5 -4
-12 -11 -12 -12 -12 -11 -10 -10 -10 -10 -9 -9 -10 -10 -10 -9 -9 -11 -8 -6 -6 -5 -4 -4 -3 -4 -5
-12 -12 -12 -12 -11 -11 -11 -10 -11 -10 -9 -9 -10 -10 -10 -10 -9 -9 -8 -6 -5 -4 -3 -2 0 1 0
-12 -12 -12 -12 -11 -11 -11 -10 -10 -11 -10 -10 -10 -9 -9 -10 -9 -8 -7 -6 -4 -3 -3 -1 0 1 0
-12 -12 -12 -11 -11 -11 -11 -10 -10 -10 -10 -10 -9 -8 -9 -10 -9 -7 -6 -4 -4 -3 -3 -2 -2 -1 0
-11 -11 -11 -11 -11 -11 -10 -10 -10 -10 -9 -9 -9 -9 -9 -8 -8 -7 -5 -4 -4 -3 -3 -3 -3 -2 -1
-11 -11 -10 -10 -10 -10 -10 -10 -10 -9 -9 -10 -9 -9 -9 -9 -7 -6 -4 -4 -4 -4 -4 -4 -4 -3 -2

GFSFLT2_850_dewp_024.txt.gz
Dewpoint
-10 -9 -9 -11 -10 -8 -7 -8 -8 -8 -10 -10 -9 -9 -8 -8 -7 -8 -8 -8 -7 -6 -5 -4 -4 -3 -2
-9 -9 -10 -10 -8 -8 -8 -10 -9 -12 -11 -10 -8 -10 -10 -9 -9 -9 -7 -7 -6 -5 -5 -5 -5 -5 -4
-9 -11 -9 -8 -7 -9 -11 -12 -13 -12 -11 -10 -10 -9 -9 -8 -8 -7 -6 -8 -9 -8 -7 -7 -6 -5 -5
-8 -8 -8 -7 -10 -11 -12 -12 -12 -10 -9 -10 -9 -9 -9 -9 -9 -9 -9 -8 -8 -8 -7 -6 -6 -7 -7
-8 -8 -9 -10 -10 -11 -11 -11 -9 -10 -11 -11 -10 -10 -10 -10 -10 -10 -9 -8 -8 -7 -6 -6 -5 -5 -4
-8 -9 -10 -10 -11 -10 -9 -9 -11 -11 -11 -10 -10 -11 -11 -12 -10 -9 -8 -8 -8 -7 -6 -6 -7 -6 -5
-10 -11 -10 -10 -9 -10 -10 -10 -10 -11 -10 -10 -11 -10 -12 -12 -11 -9 -9 -8 -8 -7 -7 -7 -6 -6 -5
-11 -10 -9 -10 -10 -10 -10 -10 -10 -12 -11 -11 -12 -11 -12 -12 -12 -11 -9 -8 -8 -8 -7 -7 -7 -6 -5
-10 -10 -11 -11 -11 -10 -11 -11 -11 -12 -13 -11 -12 -11 -11 -11 -12 -12 -11 -8 -8 -7 -7 -6 -6 -6 -6
-12 -14 -14 -13 -11 -11 -12 -12 -11 -11 -13 -11 -11 -11 -10 -11 -11 -11 -11 -12 -9 -8 -8 -8 -7 -6 -6
-14 -13 -12 -12 -11 -11 -11 -11 -12 -11 -12 -10 -10 -10 -10 -10 -10 -11 -11 -10 -8 -7 -6 -6 -6 -6 -7
-12 -12 -12 -12 -11 -11 -11 -11 -10 -10 -10 -10 -10 -9 -10 -9 -10 -11 -10 -7 -7 -5 -6 -5 -5 -6 -6
-12 -12 -11 -11 -11 -11 -11 -11 -10 -10 -10 -10 -10 -10 -10 -10 -10 -10 -8 -7 -5 -5 -4 -4 -3 -4 -5
-12 -11 -11 -11 -11 -11 -11 -10 -10 -10 -10 -9 -9 -9 -9 -9 -9 -8 -6 -8 -4 -4 -4 -3 -1 0 -1
-11 -11 -11 -11 -10 -10 -10 -10 -10 -10 -9 -10 -9 -8 -8 -8 -8 -7 -6 -4 -4 -4 -4 -4 -2 -1 -1
-11 -11 -11 -11 -10 -10 -10 -10 -10 -9 -9 -9 -9 -9 -7 -7 -7 -7 -5 -4 -4 -4 -4 -4 -3 -1 0
-11 -10 -10 -10 -10 -10 -10 -9 -9 -9 -9 -9 -8 -8 -8 -8 -6 -5 -4 -4 -4 -4 -4 -4 -5 -5 0

GFSFLT2_850_dewp_030.txt.gz
Dewpoint
-11 -11 -11 -10 -11 -10 -9 -8 -9 -11 -12 -8 -9 -9 -10 -8 -7 -7 -7 -6 -6 -6 -5 -5 -5 -3 -3
-10 -11 -11 -13 -11 -8 -9 -10 -11 -11 -11 -10 -10 -10 -9 -9 -8 -8 -7 -7 -7 -7 -6 -7 -6 -5 -4
-9 -10 -11 -9 -9 -11 -11 -12 -13 -12 -11 -10 -10 -9 -9 -8 -8 -8 -8 -7 -7 -7 -7 -6 -6 -5 -5
-9 -9 -8 -11 -11 -12 -12 -12 -11 -10 -10 -10 -9 -10 -10 -10 -9 -9 -9 -9 -8 -8 -8 -8 -7 -7 -7
-9 -9 -10 -11 -12 -12 -10 -10 -10 -10 -11 -11 -11 -12 -12 -13 -13 -12 -10 -9 -8 -8 -8 -7 -7 -7 -6
-10 -10 -11 -11 -11 -10 -10 -10 -10 -11 -10 -11 -11 -11 -12 -13 -12 -10 -9 -9 -8 -8 -8 -7 -7 -7 -6
-11 -11 -10 -10 -10 -10 -10 -10 -10 -11 -11 -12 -12 -12 -13 -13 -12 -10 -9 -9 -8 -8 -8 -8 -7 -7 -7
-10 -10 -10 -10 -10 -10 -11 -11 -11 -12 -11 -11 -12 -12 -12 -12 -13 -12 -10 -9 -8 -8 -8 -8 -8 -7 -7
-10 -10 -12 -12 -11 -11 -11 -11 -11 -12 -12 -11 -12 -11 -12 -12 -12 -11 -9 -9 -8 -8 -8 -7 -7 -7 -7
-12 -13 -13 -12 -11 -11 -11 -12 -12 -12 -12 -11 -11 -11 -11 -12 -11 -11 -10 -8 -7 -8 -8 -7 -7 -7 -7
-13 -13 -12 -11 -11 -11 -10 -11 -12 -11 -11 -11 -11 -11 -11 -11 -11 -10 -8 -7 -6 -6 -5 -5 -6 -6 -7
-12 -12 -11 -11 -10 -10 -10 -10 -10 -10 -9 -9 -10 -10 -10 -10 -10 -8 -7 -6 -6 -5 -5 -5 -5 -5 -5
-12 -11 -11 -10 -10 -10 -10 -9 -10 -9 -9 -9 -9 -9 -9 -9 -9 -7 -7 -7 -6 -5 -5 -5 -5 -5 -5
-11 -11 -10 -10 -10 -9 -9 -9 -9 -10 -9 -8 -8 -8 -7 -6 -6 -6 -6 -7 -5 -5 -5 -5 -4 -4 -4
-11 -10 -10 -10 -9 -9 -9 -9 -9 -9 -9 -9 -8 -7 -6 -5 -6 -6 -6 -6 -5 -5 -5 -5 -4 -4 -4
-10 -10 -9 -9 -9 -9 -9 -8 -8 -9 -8 -8 -8 -8 -8 -7 -6 -6 -6 -6 -5 -5 -5 -5 -3 -2 -4
-10 -9 -9 -9 -9 -9 -8 -8 -8 -9 -8 -9 -8 -7 -8 -8 -7 -5 -6 -6 -5 -5 -5 -5 -4 -1 -3

GFSFLT2_850_dewp_033.txt.gz
Dewpoint
-10 -10 -9 -9 -9 -8 -8 -8 -9 -9 -9 -9 -9 -8 -8 -8 -7 -7 -7 -7 -7 -6 -5 -5 -4 -4 -4
-9 -9 -10 -9 -8 -8 -9 -10 -10 -11 -10 -9 -9 -9 -9 -8 -8 -8 -7 -7 -7 -6 -6 -6 -5 -5 -5
-9 -11 -9 -8 -9 -10 -12 -12 -11 -11 -10 -10 -9 -8 -8 -8 -8 -8 -8 -8 -7 -8 -7 -7 -6 -6 -5
-9 -9 -9 -11 -11 -11 -11 -11 -10 -10 -11 -9 -9 -9 -9 -9 -9 -8 -8 -8 -8 -8 -8 -7 -7 -7 -7
-9 -9 -10 -11 -11 -11 -10 -10 -10 -10 -11 -10 -10 -11 -11 -10 -10 -9 -9 -9 -8 -8 -8 -7 -7 -7 -7
-9 -10 -11 -11 -11 -10 -10 -10 -10 -10 -10 -11 -10 -11 -11 -12 -11 -10 -9 -9 -8 -8 -8 -7 -7 -7 -6
-11 -11 -10 -10 -9 -10 -10 -10 -10 -10 -10 -10 -11 -11 -12 -12 -12 -10 -9 -9 -8 -8 -8 -7 -7 -7 -7
-10 -10 -10 -10 -10 -10 -10 -10 -11 -11 -10 -11 -11 -11 -12 -12 -12 -12 -10 -9 -8 -8 -7 -7 -7 -7 -7
-10 -10 -11 -12 -11 -11 -10 -11 -12 -11 -12 -11 -10 -11 -11 -12 -12 -11 -9 -8 -7 -7 -8 -7 -7 -7 -6
-11 -13 -12 -12 -11 -10 -10 -11 -12 -12 -11 -11 -11 -11 -11 -12 -10 -9 -7 -6 -6 -7 -7 -7 -6 -7 -7
-12 -12 -12 -11 -11 -10 -10 -10 -11 -11 -10 -11 -11 -10 -11 -10 -10 -9 -7 -6 -6 -6 -6 -5 -5 -5 -6
-12 -11 -11 -11 -10 -10 -10 -9 -9 -9 -9 -9 -10 -10 -9 -10 -9 -8 -6 -6 -6 -6 -6 -6 -5 -5 -5
-11 -11 -11 -10 -10 -10 -10 -9 -10 -9 -8 -8 -9 -8 -8 -9 -9 -7 -6 -7 -6 -6 -6 -5 -5 -5 -5
-11 -10 -10 -10 -10 -9 -9 -9 -9 -10 -9 -8 -8 -8 -8 -6 -6 -6 -6 -7 -6 -6 -5 -5 -5 -4 -4
-10 -10 -10 -9 -10 -9 -9 -9 -9 -9 -9 -9 -9 -8 -8 -8 -7 -6 -6 -6 -6 -6 -6 -5 -4 -3 -5
-10 -10 -10 -10 -10 -9 -9 -9 -9 -9 -9 -9 -9 -8 -8 -9 -8 -6 -6 -6 -6 -6 -5 -5 -4 -4 -5
-10 -10 -10 -10 -10 -9 -9 -9 -9 -9 -9 -9 -10 -8 -8 -7 -8 -6 -6 -6 -6 -6 -5 -5 -4 -3 -5

GFSFLT2_850_dewp_036.txt.gz
Dewpoint
-11 -10 -10 -10 -10 -9 -9 -9 -10 -10 -9 -9 -8 -8 -7 -7 -7 -6 -6 -6 -5 -5 -5 -5 -5 -4 -4
-10 -9 -9 -10 -8 -8 -10 -11 -12 -11 -10 -9 -8 -8 -7 -7 -7 -7 -6 -7 -6 -6 -6 -5 -5 -5 -4
-9 -10 -9 -8 -9 -10 -11 -11 -11 -11 -10 -9 -9 -8 -7 -7 -7 -7 -7 -7 -7 -7 -7 -7 -6 -6 -6
-9 -9 -7 -9 -10 -11 -11 -11 -10 -10 -10 -9 -9 -9 -8 -8 -8 -8 -8 -8 -7 -7 -7 -7 -7 -7 -7
-8 -7 -9 -10 -12 -11 -10 -10 -10 -9 -10 -10 -10 -10 -10 -9 -9 -8 -8 -8 -8 -7 -7 -7 -7 -7 -6
-8 -9 -11 -12 -11 -10 -10 -9 -9 -10 -10 -10 -9 -10 -10 -10 -9 -8 -8 -8 -8 -7 -7 -7 -7 -7 -6
-9 -11 -11 -10 -10 -9 -9 -10 -9 -10 -9 -10 -10 -10 -10 -11 -9 -8 -8 -8 -8 -7 -7 -7 -7 -7 -6
-11 -10 -10 -10 -9 -10 -10 -10 -10 -10 -9 -10 -10 -10 -10 -11 -11 -11 -9 -7 -7 -7 -7 -7 -7 -7 -6
-10 -9 -9 -9 -10 -10 -10 -10 -10 -10 -11 -10 -9 -10 -10 -11 -11 -10 -9 -8 -6 -6 -7 -7 -7 -7 -7
-10 -11 -11 -10 -10 -10 -10 -10 -10 -11 -10 -10 -10 -10 -9 -10 -10 -10 -8 -8 -7 -6 -6 -6 -6 -6 -6
-11 -11 -10 -10 -10 -10 -10 -10 -11 -10 -10 -10 -10 -10 -10 -9 -9 -9 -8 -7 -7 -7 -6 -6 -6 -6 -6
-11 -11 -10 -10 -10 -10 -10 -10 -10 -9 -9 -9 -10 -10 -10 -10 -9 -8 -7 -7 -7 -6 -6 -6 -6 -6 -5
-11 -11 -10 -10 -10 -10 -10 -10 -10 -10 -9 -9 -8 -9 -9 -9 -9 -8 -7 -7 -7 -6 -6 -6 -5 -5 -5
-12 -10 -10 -10 -10 -10 -10 -10 -9 -10 -10 -9 -9 -8 -8 -8 -8 -7 -7 -6 -6 -6 -6 -6 -4 -4 -5
-11 -10 -10 -10 -10 -10 -10 -9 -9 -9 -9 -10 -9 -8 -8 -7 -7 -8 -7 -6 -6 -6 -6 -6 -5 -4 -5
-10 -10 -10 -10 -10 -10 -9 -9 -9 -9 -9 -9 -8 -8 -8 -9 -7 -7 -6 -6 -6 -6 -6 -6 -6 -4 -4
-10 -10 -10 -10 -9 -9 -9 -9 -9 -9 -9 -8 -8 -8 -8 -7 -9 -9 -6 -6 -6 -6 -6 -6 -5 -4 -4

GFSFLT2_850_dewp_039.txt.gz
Dewpoint
-10 -10 -9 -9 -9 -9 -9 -10 -9 -10 -9 -9 -8 -8 -7 -7 -6 -6 -6 -5 -5 -5 -5 -5 -4 -4 -4
-9 -9 -9 -9 -9 -8 -9 -9 -11 -11 -10 -9 -8 -8 -7 -7 -6 -6 -6 -6 -6 -5 -5 -5 -5 -4 -4
-9 -9 -9 -8 -8 -8 -10 -10 -11 -11 -10 -9 -8 -8 -7 -7 -7 -7 -6 -7 -6 -6 -6 -6 -6 -5 -5
-10 -10 -8 -7 -8 -10 -11 -11 -10 -11 -10 -11 -9 -8 -8 -8 -7 -7 -7 -7 -6 -6 -6 -6 -6 -6 -6
-8 -7 -7 -9 -10 -11 -10 -9 -11 -9 -9 -13 -9 -11 -11 -10 -9 -8 -7 -7 -7 -6 -6 -6 -6 -6 -6
-8 -8 -8 -10 -10 -10 -11 -9 -8 -10 -9 -12 -10 -11 -11 -11 -9 -8 -7 -7 -7 -6 -6 -6 -6 -6 -6
-8 -9 -10 -10 -11 -10 -9 -9 -9 -10 -10 -11 -11 -11 -11 -11 -10 -8 -8 -9 -7 -6 -6 -6 -6 -6 -6
-10 -10 -10 -10 -8 -8 -9 -10 -11 -10 -9 -9 -10 -11 -10 -10 -12 -11 -10 -7 -6 -6 -6 -6 -6 -6 -6
-10 -10 -8 -9 -9 -10 -10 -10 -10 -10 -10 -10 -10 -10 -11 -11 -11 -10 -10 -9 -8 -7 -6 -6 -6 -6 -6
-11 -11 -10 -11 -9 -10 -10 -10 -10 -10 -10 -10 -10 -10 -10 -10 -10 -11 -10 -9 -8 -8 -7 -6 -6 -6 -6
-11 -11 -11 -11 -10 -10 -10 -10 -11 -11 -10 -10 -11 -11 -11 -10 -10 -10 -9 -9 -8 -7 -7 -7 -6 -6 -6
-11 -11 -11 -11 -10 -10 -10 -10 -10 -10 -10 -9 -10 -10 -10 -10 -10 -10 -9 -9 -7 -7 -6 -6 -6 -6 -5
-11 -11 -11 -10 -10 -10 -10 -10 -10 -10 -10 -10 -9 -9 -10 -10 -9 -9 -8 -8 -7 -6 -6 -6 -6 -6 -5
-11 -10 -10 -10 -10 -10 -10 -10 -10 -10 -10 -10 -9 -9 -9 -9 -8 -8 -7 -7 -6 -6 -6 -7 -7 -6 -5
-10 -10 -10 -10 -10 -10 -10 -10 -10 -9 -10 -10 -9 -9 -8 -8 -8 -8 -7 -7 -6 -6 -6 -6 -7 -6 -5
-9 -10 -10 -10 -10 -10 -9 -9 -10 -9 -9 -9 -9 -9 -9 -8 -8 -7 -8 -7 -7 -6 -6 -6 -6 -7 -5
-9 -9 -9 -9 -9 -9 -9 -9 -9 -9 -9 -9 -8 -8 -8 -8 -10 -8 -7 -8 -7 -6 -6 -6 -6 -6 -6

GFSFLT2_850_dewp_045.txt.gz
Dewpoint
-14 -14 -13 -13 -13 -13 -12 -11 -12 -12 -8 -8 -7 -7 -7 -7 -7 -6 -5 -5 -5 -5 -4 -4 -4 -4 -3
-11 -12 -11 -11 -11 -10 -11 -12 -12 -13 -9 -8 -8 -8 -7 -7 -6 -6 -6 -6 -5 -5 -5 -5 -5 -4 -4
-9 -9 -9 -10 -10 -10 -11 -11 -12 -12 -10 -11 -9 -10 -7 -7 -7 -7 -7 -7 -7 -6 -6 -5 -5 -5 -4
-8 -9 -10 -10 -9 -9 -11 -11 -11 -12 -12 -12 -10 -11 -10 -11 -12 -12 -11 -8 -7 -6 -6 -6 -6 -5 -5
-8 -9 -9 -9 -10 -10 -10 -11 -12 -11 -10 -10 -10 -12 -13 -13 -13 -12 -11 -7 -7 -6 -6 -6 -6 -6 -5
-8 -8 -9 -10 -10 -10 -10 -10 -9 -10 -9 -9 -12 -12 -13 -12 -12 -11 -10 -8 -7 -7 -7 -6 -6 -5 -5
-9 -10 -10 -10 -10 -10 -9 -9 -9 -10 -11 -10 -12 -12 -12 -12 -12 -12 -12 -9 -8 -7 -6 -6 -6 -5 -5
-10 -9 -9 -9 -9 -9 -9 -9 -11 -11 -11 -10 -11 -11 -11 -12 -12 -12 -12 -11 -8 -7 -7 -7 -6 -6 -5
-10 -9 -9 -9 -10 -10 -11 -10 -11 -11 -11 -10 -11 -11 -11 -12 -12 -12 -11 -11 -11 -11 -9 -8 -7 -6 -6
-11 -12 -12 -12 -11 -10 -10 -10 -11 -11 -11 -10 -11 -11 -11 -11 -11 -11 -12 -11 -11 -11 -10 -10 -8 -7 -6
-12 -12 -12 -11 -11 -10 -10 -10 -10 -11 -11 -10 -11 -11 -11 -11 -11 -11 -11 -11 -11 -11 -10 -10 -9 -8 -6
-11 -11 -11 -10 -10 -10 -10 -10 -10 -10 -9 -9 -10 -10 -11 -11 -11 -11 -11 -11 -11 -10 -10 -10 -10 -9 -9
-11 -10 -10 -10 -10 -10 -10 -10 -10 -10 -10 -9 -9 -9 -10 -11 -10 -10 -10 -11 -11 -10 -10 -10 -9 -9 -8
-10 -10 -10 -10 -10 -10 -10 -9 -9 -11 -10 -10 -10 -9 -10 -10 -9 -9 -10 -10 -10 -10 -9 -9 -9 -8 -8
-9 -9 -9 -9 -10 -9 -9 -9 -10 -9 -10 -11 -10 -9 -9 -10 -10 -10 -10 -10 -10 -9 -8 -8 -8 -8 -8
-9 -9 -9 -9 -9 -9 -9 -9 -9 -9 -9 -10 -9 -9 -10 -10 -10 -9 -9 -9 -9 -8 -8 -8 -8 -9 -8
-9 -9 -9 -9 -9 -9 -9 -9 -9 -9 -10 -9 -8 -9 -9 -9 -10 -8 -8 -8 -8 -8 -7 -7 -7 -8 -8

GFSFLT2_850_dewp_048.txt.gz
Dewpoint
-15 -15 -14 -15 -17 -16 -15 -15 -15 -17 -14 -8 -7 -7 -7 -7 -7 -6 -6 -5 -5 -5 -4 -4 -4 -3 -3
-12 -11 -11 -12 -12 -13 -14 -16 -16 -19 -13 -8 -8 -8 -7 -7 -6 -6 -6 -6 -6 -5 -5 -5 -5 -5 -4
-9 -9 -9 -11 -11 -12 -12 -14 -15 -15 -13 -12 -12 -9 -8 -7 -7 -7 -7 -7 -7 -7 -6 -6 -5 -5 -5
-9 -8 -9 -10 -11 -10 -11 -13 -13 -13 -12 -11 -11 -11 -12 -10 -11 -13 -13 -13 -8 -7 -6 -6 -6 -6 -5
-8 -8 -9 -9 -10 -11 -11 -11 -11 -12 -11 -9 -12 -12 -13 -12 -12 -12 -13 -11 -8 -7 -7 -6 -6 -6 -6
-8 -8 -9 -10 -11 -11 -10 -9 -9 -11 -10 -10 -12 -12 -12 -12 -12 -12 -10 -8 -8 -7 -7 -7 -6 -6 -6
-8 -10 -10 -11 -10 -9 -9 -9 -10 -12 -11 -11 -11 -12 -12 -12 -12 -12 -12 -10 -8 -8 -7 -7 -7 -6 -6
-10 -10 -9 -9 -9 -9 -9 -10 -11 -11 -11 -10 -11 -11 -12 -12 -12 -12 -12 -12 -11 -8 -8 -7 -7 -7 -6
-10 -10 -10 -10 -11 -11 -11 -10 -10 -10 -11 -11 -11 -11 -11 -12 -12 -12 -12 -11 -11 -11 -11 -8 -8 -7 -6
-12 -12 -12 -12 -11 -10 -10 -10 -10 -11 -11 -10 -11 -11 -10 -11 -11 -11 -11 -11 -11 -11 -11 -10 -9 -8 -8
-12 -12 -12 -11 -11 -10 -10 -10 -10 -10 -10 -10 -11 -11 -11 -11 -11 -11 -11 -11 -11 -11 -11 -11 -10 -8 -8
-11 -11 -10 -10 -11 -10 -10 -10 -10 -10 -10 -9 -10 -9 -10 -11 -11 -11 -11 -11 -11 -11 -11 -11 -11 -10 -8
-10 -10 -10 -10 -10 -10 -10 -10 -10 -10 -10 -10 -9 -9 -10 -10 -10 -10 -10 -11 -11 -11 -11 -10 -10 -10 -9
-10 -10 -10 -9 -10 -9 -9 -9 -9 -11 -11 -10 -9 -9 -9 -9 -9 -9 -11 -10 -11 -11 -10 -10 -9 -9 -8
-10 -9 -9 -9 -9 -10 -9 -9 -9 -9 -10 -10 -10 -9 -9 -9 -10 -10 -10 -10 -11 -10 -9 -8 -8 -8 -8
-9 -9 -9 -9 -9 -9 -9 -9 -9 -9 -9 -10 -10 -9 -10 -10 -10 -10 -10 -10 -10 -8 -8 -8 -8 -9 -8
-8 -9 -9 -9 -9 -9 -9 -9 -9 -9 -10 -9 -9 -9 -10 -10 -10 -9 -9 -8 -8 -8 -8 -7 -7 -8 -7

GFSFLT2_850_dewp_051.txt.gz
Dewpoint
-15 -16 -16 -17 -19 -19 -18 -17 -18 -19 -21 -14 -8 -7 -7 -7 -7 -6 -6 -5 -5 -5 -4 -4 -4 -4 -3
-14 -14 -13 -14 -13 -13 -14 -15 -18 -21 -21 -12 -8 -8 -7 -7 -6 -6 -6 -6 -6 -5 -5 -5 -5 -5 -4
-11 -12 -11 -10 -11 -11 -13 -15 -18 -18 -14 -13 -13 -12 -8 -7 -7 -7 -7 -7 -7 -7 -6 -6 -6 -5 -5
-11 -9 -8 -10 -10 -11 -12 -13 -14 -13 -13 -12 -12 -12 -12 -13 -11 -12 -12 -12 -8 -7 -7 -7 -6 -6 -5
-8 -8 -9 -10 -10 -11 -12 -12 -11 -12 -12 -12 -12 -12 -13 -13 -12 -12 -12 -12 -8 -7 -7 -7 -6 -6 -6
-8 -8 -9 -10 -11 -11 -10 -9 -9 -11 -12 -12 -12 -12 -12 -12 -12 -12 -13 -9 -8 -8 -7 -7 -7 -7 -6
-9 -9 -10 -11 -10 -9 -9 -9 -10 -12 -11 -11 -11 -12 -12 -12 -12 -13 -13 -12 -9 -8 -7 -7 -7 -7 -7
-10 -10 -10 -9 -9 -9 -9 -11 -11 -11 -11 -11 -11 -11 -12 -12 -13 -12 -12 -12 -11 -9 -8 -7 -7 -7 -7
-12 -11 -11 -11 -11 -11 -11 -10 -10 -10 -10 -11 -11 -11 -11 -12 -12 -12 -11 -11 -11 -10 -10 -9 -8 -8 -7
-12 -12 -12 -12 -11 -11 -10 -10 -10 -10 -10 -10 -10 -11 -10 -11 -11 -11 -11 -11 -11 -11 -11 -11 -10 -9 -8
-12 -12 -12 -11 -11 -11 -10 -10 -10 -10 -11 -10 -11 -11 -11 -10 -10 -11 -11 -11 -11 -11 -11 -11 -11 -10 -9
-11 -11 -11 -11 -10 -10 -10 -9 -9 -9 -10 -9 -10 -10 -10 -11 -11 -11 -11 -11 -11 -11 -11 -11 -11 -11 -9
-11 -11 -10 -10 -9 -10 -10 -10 -10 -10 -10 -10 -9 -9 -10 -10 -10 -10 -10 -11 -11 -10 -10 -11 -10 -10 -10
-10 -10 -9 -9 -9 -9 -10 -10 -10 -11 -11 -10 -10 -9 -9 -9 -9 -10 -10 -10 -10 -10 -10 -10 -9 -9 -9
-9 -9 -9 -9 -9 -9 -9 -9 -9 -10 -10 -11 -10 -9 -9 -9 -10 -10 -10 -10 -10 -10 -9 -8 -9 -8 -8
-9 -8 -8 -9 -9 -9 -9 -9 -9 -9 -10 -10 -9 -9 -10 -10 -10 -10 -10 -10 -10 -9 -8 -9 -8 -8 -8
-9 -8 -8 -8 -8 -8 -9 -9 -9 -9 -9 -9 -9 -9 -10 -10 -10 -9 -9 -9 -8 -9 -8 -8 -8 -8 -8

GFSFLT2_850_dewp_054.txt.gz
Dewpoint
-16 -17 -17 -18 -19 -19 -18 -17 -19 -20 -21 -21 -10 -7 -7 -7 -6 -6 -6 -5 -5 -5 -4 -4 -4 -3 -3
-16 -15 -15 -17 -19 -16 -14 -14 -16 -20 -21 -17 -11 -10 -8 -7 -7 -6 -6 -6 -6 -5 -5 -5 -5 -4 -4
-14 -13 -13 -15 -12 -13 -12 -15 -18 -18 -15 -13 -13 -13 -13 -9 -7 -7 -7 -7 -7 -6 -6 -6 -6 -5 -5
-11 -11 -10 -10 -11 -11 -12 -14 -14 -13 -14 -13 -13 -13 -14 -13 -13 -13 -13 -13 -10 -7 -7 -7 -6 -6 -6
-10 -8 -10 -10 -10 -11 -12 -11 -11 -12 -14 -13 -13 -13 -14 -13 -13 -13 -13 -13 -11 -8 -7 -6 -6 -6 -6
-9 -8 -9 -9 -10 -12 -10 -10 -9 -12 -12 -12 -12 -13 -12 -12 -12 -13 -13 -13 -11 -8 -7 -7 -7 -7 -7
-8 -9 -9 -12 -10 -10 -9 -10 -11 -11 -11 -12 -12 -12 -12 -12 -13 -13 -13 -13 -11 -8 -7 -7 -7 -7 -7
-10 -11 -11 -9 -9 -9 -10 -11 -11 -11 -11 -11 -12 -12 -12 -12 -12 -13 -13 -12 -12 -9 -8 -7 -7 -7 -7
-13 -12 -12 -12 -12 -11 -11 -10 -10 -10 -11 -11 -11 -11 -11 -12 -12 -12 -12 -12 -11 -11 -11 -10 -8 -8 -7
-13 -13 -12 -12 -11 -10 -10 -10 -9 -10 -11 -10 -10 -10 -11 -11 -11 -11 -12 -12 -12 -12 -11 -11 -10 -9 -8
-12 -12 -11 -11 -11 -11 -10 -9 -9 -9 -10 -10 -11 -10 -11 -10 -10 -11 -11 -12 -11 -11 -11 -11 -11 -10 -9
-11 -11 -11 -10 -10 -10 -10 -10 -10 -10 -10 -10 -10 -10 -10 -11 -10 -11 -11 -11 -11 -11 -10 -10 -10 -10 -10
-10 -10 -10 -9 -10 -10 -10 -10 -10 -10 -10 -10 -9 -9 -9 -9 -9 -10 -10 -10 -10 -10 -10 -10 -10 -10 -10
-10 -10 -9 -9 -9 -9 -9 -9 -9 -10 -10 -10 -10 -9 -9 -9 -9 -9 -9 -10 -10 -10 -10 -9 -9 -9 -9
-10 -9 -9 -9 -9 -9 -9 -9 -9 -9 -10 -10 -9 -9 -9 -9 -9 -9 -10 -10 -10 -10 -9 -8 -9 -9 -9
-9 -9 -9 -9 -9 -9 -8 -8 -9 -9 -9 -9 -9 -9 -10 -10 -10 -10 -10 -10 -9 -8 -8 -8 -8 -8 -8
-9 -9 -9 -9 -9 -9 -9 -9 -9 -9 -9 -9 -9 -9 -10 -10 -10 -9 -9 -9 -8 -8 -8 -8 -8 -8 -7